Time_in_sec,Latitude,Longitude,Altitude,Nbsat,valid_data
1312467282.22307181,47.37639236,8.55012894,488.74581909,5, 1
1312467282.27220511,47.37639236,8.55012989,488.88470459,5, 1
1312467282.32320976,47.37639236,8.55012989,488.86642456,5, 1
1312467282.37152982,47.37639236,8.55012894,488.84811401,5, 1
1312467282.42334223,47.37639236,8.55012894,488.82977295,5, 1
1312467282.47259974,47.37639236,8.55012894,488.81140137,5, 1
1312467282.52309775,47.37639236,8.55012894,488.94580078,5, 1
1312467282.57152462,47.37639236,8.55012894,488.92797852,5, 1
1312467282.62321329,47.37639236,8.55012894,488.91006470,5, 1
1312467282.67162108,47.37639236,8.55012894,488.89215088,5, 1
1312467282.72421527,47.37639236,8.55012798,488.87417603,5, 1
1312467282.77181602,47.37639236,8.55012894,489.00640869,5, 1
1312467282.82421660,47.37639236,8.55012894,488.98895264,5, 1
1312467282.87246990,47.37639236,8.55012798,488.97146606,5, 1
1312467282.92310786,47.37639236,8.55012798,488.95394897,5, 1
1312467282.97211838,47.37639236,8.55012798,488.93643188,5, 1
1312467283.02432990,47.37639236,8.55012894,489.06674194,5, 1
1312467283.07120109,47.37639236,8.55012894,489.04971313,5, 1
1312467283.12311363,47.37639236,8.55012894,489.03265381,5, 1
1312467283.17151165,47.37639236,8.55012798,489.01556396,5, 1
1312467283.22424769,47.37639236,8.55012798,488.99844360,5, 1
1312467283.27226138,47.37639236,8.55012798,489.12576294,5, 1
1312467283.32423544,47.37639236,8.55012798,489.10916138,5, 1
1312467283.37223506,47.37639236,8.55012798,489.09255981,5, 1
1312467283.42309833,47.37639236,8.55012798,489.07589722,5, 1
1312467283.47213817,47.37639236,8.55012798,489.05923462,5, 1
1312467283.52020764,47.37639236,8.55012798,489.18771362,5, 1
1312467283.57221866,47.37639236,8.55012798,489.17153931,5, 1
1312467283.62420750,47.37639236,8.55012798,489.15536499,5, 1
1312467283.67111254,47.37639236,8.55012798,489.13916016,5, 1
1312467283.72020483,47.37639236,8.55012798,489.12292480,5, 1
1312467283.77110386,47.37639236,8.55012894,489.24832153,5, 1
1312467283.82020593,47.37639236,8.55012894,489.23257446,5, 1
1312467283.87186933,47.37639236,8.55012798,489.21682739,5, 1
1312467283.92015195,47.37639236,8.55012798,489.20101929,5, 1
1312467283.97211981,47.37639236,8.55012798,489.18515015,5, 1
1312467284.02415228,47.37639236,8.55012989,489.31497192,5, 1
1312467284.07304406,47.37639236,8.55012894,489.29962158,5, 1
1312467284.12411404,47.37639236,8.55012894,489.28427124,5, 1
1312467284.17211628,47.37639236,8.55012894,489.26889038,5, 1
1312467284.22415733,47.37639236,8.55012894,489.25344849,5, 1
1312467284.27305865,47.37639236,8.55012894,489.37796021,5, 1
1312467284.32011604,47.37639236,8.55012894,489.36303711,5, 1
1312467284.37215114,47.37639236,8.55012894,489.34805298,5, 1
1312467284.42020369,47.37639236,8.55012894,489.33303833,5, 1
1312467284.47108960,47.37639236,8.55012894,489.31799316,5, 1
1312467284.52311611,47.37639236,8.55012894,489.43975830,5, 1
1312467284.57109952,47.37639236,8.55012894,489.42517090,5, 1
1312467284.62021232,47.37639236,8.55012894,489.41055298,5, 1
1312467284.67220569,47.37639236,8.55012894,489.39590454,5, 1
1312467284.72422099,47.37639236,8.55012894,489.38119507,5, 1
1312467284.77221918,47.37639236,8.55012894,489.49948120,5, 1
1312467284.82351446,47.37639236,8.55012894,489.48522949,5, 1
1312467284.87261152,47.37639236,8.55012894,489.47091675,5, 1
1312467284.92420721,47.37639236,8.55012894,489.45654297,5, 1
1312467284.97126102,47.37639236,8.55012894,489.44213867,5, 1
1312467285.02422547,47.37639236,8.55012894,489.55352783,5, 1
1312467285.07221413,47.37639236,8.55012894,489.53955078,5, 1
1312467285.12421417,47.37639236,8.55012894,489.52551270,5, 1
1312467285.17221928,47.37639236,8.55012894,489.51144409,5, 1
1312467285.22412825,47.37638855,8.55012894,489.49737549,5, 1
1312467285.27244925,47.37639236,8.55012894,489.60919189,5, 1
1312467285.32422519,47.37638855,8.55012894,489.59555054,5, 1
1312467285.37209082,47.37638855,8.55012894,489.58187866,5, 1
1312467285.42309737,47.37638855,8.55012894,489.56814575,5, 1
1312467285.47215414,47.37638855,8.55012798,489.55438232,5, 1
1312467285.52308822,47.37638855,8.55012894,489.66259766,5, 1
1312467285.57115793,47.37638855,8.55012894,489.64923096,5, 1
1312467285.62314391,47.37638855,8.55012894,489.63580322,5, 1
1312467285.67120814,47.37638855,8.55012894,489.62231445,5, 1
1312467285.72326064,47.37638855,8.55012894,489.60882568,5, 1
1312467285.77222419,47.37638855,8.55012989,489.71286011,5, 1
1312467285.82341361,47.37638855,8.55012989,489.69970703,5, 1
1312467285.87221313,47.37638855,8.55012894,489.68652344,5, 1
1312467285.92320132,47.37638855,8.55012894,489.67327881,5, 1
1312467285.97213697,47.37638855,8.55012894,489.66003418,5, 1
1312467286.02359653,47.37638855,8.55012989,489.76150513,5, 1
1312467286.07235742,47.37638855,8.55012989,489.74862671,5, 1
1312467286.12352848,47.37638855,8.55012989,489.73571777,5, 1
1312467286.17220592,47.37638855,8.55012989,489.72274780,5, 1
1312467286.22384930,47.37638855,8.55012989,489.70974731,5, 1
1312467286.27218223,47.37638855,8.55012989,489.80834961,5, 1
1312467286.32412815,47.37638855,8.55012989,489.79571533,5, 1
1312467286.37120390,47.37638855,8.55012989,489.78302002,5, 1
1312467286.42420602,47.37638855,8.55012989,489.77029419,5, 1
1312467286.47215033,47.37638855,8.55012989,489.75753784,5, 1
1312467286.52032614,47.37639236,8.55013084,489.85848999,5, 1
1312467286.57210231,47.37639236,8.55013084,489.84613037,5, 1
1312467286.62317300,47.37639236,8.55012989,489.83370972,5, 1
1312467286.67212701,47.37639236,8.55012989,489.82125854,5, 1
1312467286.72020531,47.37639236,8.55012989,489.80874634,5, 1
1312467286.77220154,47.37639236,8.55013084,489.90209961,5, 1
1312467286.82336593,47.37639236,8.55013084,489.88989258,5, 1
1312467286.87219667,47.37639236,8.55013084,489.87762451,5, 1
1312467286.92019033,47.37639236,8.55013084,489.86532593,5, 1
1312467286.97217989,47.37639236,8.55013084,489.85299683,5, 1
1312467287.02018023,47.37639236,8.55013084,489.94790649,5, 1
1312467287.07217574,47.37639236,8.55013084,489.93594360,5, 1
1312467287.12017512,47.37639236,8.55013084,489.92395020,5, 1
1312467287.17210770,47.37639236,8.55013084,489.91192627,5, 1
1312467287.22008419,47.37639236,8.55013084,489.89987183,5, 1
1312467287.27279449,47.37639236,8.55013084,489.99475098,5, 1
1312467287.32010007,47.37639236,8.55013084,489.98306274,5, 1
1312467287.37220669,47.37639236,8.55013084,489.97134399,5, 1
1312467287.42015433,47.37639236,8.55013084,489.95953369,5, 1
1312467287.47210383,47.37639236,8.55012989,489.94772339,5, 1
1312467287.52313304,47.37639236,8.55013180,490.03460693,5, 1
1312467287.57209015,47.37639236,8.55013180,490.02307129,5, 1
1312467287.62420917,47.37639236,8.55013180,490.01147461,5, 1
1312467287.67108727,47.37639236,8.55013180,489.99987793,5, 1
1312467287.72421622,47.37639236,8.55013084,489.98822021,5, 1
1312467287.77212858,47.37639236,8.55013180,490.07522583,5, 1
1312467287.82308125,47.37639236,8.55013180,490.06384277,5, 1
1312467287.87266183,47.37639236,8.55013180,490.05242920,5, 1
1312467287.92316985,47.37639236,8.55013180,490.04095459,5, 1
1312467287.97221351,47.37639236,8.55013180,490.02944946,5, 1
1312467288.02310848,47.37639236,8.55013180,490.10961914,5, 1
1312467288.07262945,47.37639236,8.55013180,490.09835815,5, 1
1312467288.12318802,47.37639236,8.55013180,490.08706665,5, 1
1312467288.17212462,47.37639236,8.55013180,490.07574463,5, 1
1312467288.22319293,47.37639236,8.55013180,490.06439209,5, 1
1312467288.27221370,47.37639236,8.55013275,490.14138794,5, 1
1312467288.32341099,47.37639236,8.55013275,490.13027954,5, 1
1312467288.37113023,47.37639236,8.55013275,490.11914062,5, 1
1312467288.42333293,47.37639236,8.55013275,490.10794067,5, 1
1312467288.47129440,47.37639236,8.55013275,490.09671021,5, 1
1312467288.52422619,47.37639618,8.55013275,490.17318726,5, 1
1312467288.57169724,47.37639618,8.55013275,490.16220093,5, 1
1312467288.62310743,47.37639618,8.55013275,490.15115356,5, 1
1312467288.67221713,47.37639618,8.55013275,490.14010620,5, 1
1312467288.72339201,47.37639618,8.55013275,490.12902832,5, 1
1312467288.77199435,47.37639618,8.55013371,490.20016479,5, 1
1312467288.82421637,47.37639618,8.55013371,490.18930054,5, 1
1312467288.87249398,47.37639618,8.55013275,490.17837524,5, 1
1312467288.92327905,47.37639618,8.55013275,490.16741943,5, 1
1312467288.97221804,47.37639618,8.55013275,490.15640259,5, 1
1312467289.02040100,47.37639618,8.55013371,490.22213745,5, 1
1312467289.07119346,47.37639618,8.55013275,490.21133423,5, 1
1312467289.12403226,47.37639618,8.55013275,490.20053101,5, 1
1312467289.17220736,47.37639618,8.55013275,490.18963623,5, 1
1312467289.22416139,47.37639618,8.55013275,490.17874146,5, 1
1312467289.27124763,47.37639618,8.55013371,490.23666382,5, 1
1312467289.32310367,47.37639618,8.55013371,490.22592163,5, 1
1312467289.37217927,47.37639618,8.55013371,490.21514893,5, 1
1312467289.42024589,47.37639618,8.55013371,490.20434570,5, 1
1312467289.47158360,47.37639618,8.55013371,490.19348145,5, 1
1312467289.52424812,47.37639618,8.55013371,490.25021362,5, 1
1312467289.57211041,47.37639618,8.55013371,490.23950195,5, 1
1312467289.62307382,47.37639618,8.55013371,490.22875977,5, 1
1312467289.67109537,47.37639618,8.55013371,490.21795654,5, 1
1312467289.72423649,47.37639618,8.55013371,490.20712280,5, 1
1312467289.77120662,47.37639618,8.55013466,490.25918579,5, 1
1312467289.82025194,47.37639618,8.55013466,490.24853516,5, 1
1312467289.87220407,47.37639618,8.55013466,490.23782349,5, 1
1312467289.92308807,47.37639618,8.55013466,490.22705078,5, 1
1312467289.97219801,47.37639618,8.55013466,490.21627808,5, 1
1312467290.02309060,47.37639618,8.55013466,490.26443481,5, 1
1312467290.07212853,47.37639618,8.55013466,490.25378418,5, 1
1312467290.12341905,47.37639618,8.55013466,490.24310303,5, 1
1312467290.17173648,47.37639618,8.55013466,490.23236084,5, 1
1312467290.22020030,47.37639618,8.55013466,490.22158813,5, 1
1312467290.27210140,47.37639618,8.55013466,490.26068115,5, 1
1312467290.32011914,47.37639618,8.55013466,490.25003052,5, 1
1312467290.37107134,47.37639618,8.55013466,490.23931885,5, 1
1312467290.42008209,47.37639618,8.55013466,490.22857666,5, 1
1312467290.47309613,47.37639618,8.55013466,490.21780396,5, 1
1312467290.52505589,47.37639999,8.55013561,490.25534058,5, 1
1312467290.57291007,47.37639999,8.55013561,490.24465942,5, 1
1312467290.62013912,47.37639999,8.55013561,490.23397827,5, 1
1312467290.67208099,47.37639999,8.55013561,490.22323608,5, 1
1312467290.72340488,47.37639999,8.55013561,490.21246338,5, 1
1312467290.77221870,47.37639999,8.55013561,490.24804688,5, 1
1312467290.82308984,47.37639999,8.55013561,490.23739624,5, 1
1312467290.87248039,47.37639999,8.55013561,490.22671509,5, 1
1312467290.92308092,47.37639999,8.55013561,490.21600342,5, 1
1312467290.97221017,47.37639999,8.55013561,490.20523071,5, 1
1312467291.02712846,47.37639999,8.55013561,490.23443604,5, 1
1312467291.07221317,47.37639999,8.55013561,490.22372437,5, 1
1312467291.12314868,47.37639999,8.55013561,490.21298218,5, 1
1312467291.17210460,47.37639999,8.55013561,490.20217896,5, 1
1312467291.22308230,47.37639999,8.55013561,490.19137573,5, 1
1312467291.27108383,47.37639999,8.55013657,490.21331787,5, 1
1312467291.32411170,47.37639999,8.55013561,490.20254517,5, 1
1312467291.37111187,47.37639999,8.55013561,490.19171143,5, 1
1312467291.42319560,47.37639999,8.55013561,490.18087769,5, 1
1312467291.47182751,47.37639999,8.55013561,490.16998291,5, 1
1312467291.52422714,47.37639999,8.55013657,490.19021606,5, 1
1312467291.57127881,47.37639999,8.55013657,490.17935181,5, 1
1312467291.62368655,47.37639999,8.55013657,490.16842651,5, 1
1312467291.67108297,47.37639999,8.55013657,490.15744019,5, 1
1312467291.72327137,47.37639999,8.55013657,490.14645386,5, 1
1312467291.77214789,47.37639999,8.55013752,490.15673828,5, 1
1312467291.82308292,47.37639999,8.55013752,490.14572144,5, 1
1312467291.87254977,47.37639999,8.55013752,490.13464355,5, 1
1312467291.92318511,47.37639999,8.55013657,490.12353516,5, 1
1312467291.97108817,47.37639999,8.55013657,490.11242676,5, 1
1312467292.02410388,47.37640381,8.55013752,490.12805176,5, 1
1312467292.07128429,47.37640381,8.55013752,490.11694336,5, 1
1312467292.12314987,47.37640381,8.55013752,490.10580444,5, 1
1312467292.17209363,47.37640381,8.55013752,490.09463501,5, 1
1312467292.22345328,47.37640381,8.55013752,490.08340454,5, 1
1312467292.27168655,47.37640381,8.55013847,490.09115601,5, 1
1312467292.32310009,47.37640381,8.55013847,490.07989502,5, 1
1312467292.37210321,47.37640381,8.55013847,490.06857300,5, 1
1312467292.42024612,47.37640381,8.55013847,490.05725098,5, 1
1312467292.47220325,47.37640381,8.55013847,490.04586792,5, 1
1312467292.52418447,47.37640381,8.55013847,490.04528809,5, 1
1312467292.57217407,47.37640381,8.55013847,490.03384399,5, 1
1312467292.62376761,47.37640381,8.55013847,490.02236938,5, 1
1312467292.67175031,47.37640381,8.55013847,490.01086426,5, 1
1312467292.72309756,47.37640381,8.55013847,489.99929810,5, 1
1312467292.77220821,47.37640381,8.55013943,489.99932861,5, 1
1312467292.82013535,47.37640381,8.55013943,489.98770142,5, 1
1312467292.87302256,47.37640381,8.55013943,489.97601318,5, 1
1312467292.92012429,47.37640381,8.55013943,489.96432495,5, 1
1312467292.97211814,47.37640381,8.55013943,489.95257568,5, 1
1312467293.02054763,47.37640381,8.55013943,489.94094849,5, 1
1312467293.07179499,47.37640381,8.55013943,489.92907715,5, 1
1312467293.12009358,47.37640381,8.55013943,489.91717529,5, 1
1312467293.17209768,47.37640381,8.55013943,489.90524292,5, 1
1312467293.22011638,47.37640381,8.55013943,489.89324951,5, 1
1312467293.27121568,47.37640762,8.55013943,489.88156128,5, 1
1312467293.32407141,47.37640762,8.55013943,489.86947632,5, 1
1312467293.37120724,47.37640762,8.55013943,489.85736084,5, 1
1312467293.41997957,47.37640762,8.55013943,489.84518433,5, 1
1312467293.47134066,47.37640762,8.55013943,489.83297729,5, 1
1312467293.52107072,47.37640762,8.55013943,489.82498169,5, 1
1312467293.57151437,47.37640762,8.55013943,489.81271362,5, 1
1312467293.62009001,47.37640762,8.55013943,489.80038452,5, 1
1312467293.67121911,47.37640762,8.55013943,489.78805542,5, 1
1312467293.72390103,47.37640762,8.55013943,489.77569580,5, 1
1312467293.77227426,47.37640762,8.55014038,489.75967407,5, 1
1312467293.82311320,47.37640762,8.55014038,489.74719238,5, 1
1312467293.87193179,47.37640762,8.55014038,489.73468018,5, 1
1312467293.92408061,47.37640762,8.55014038,489.72216797,5, 1
1312467293.97212338,47.37640762,8.55013943,489.70959473,5, 1
1312467294.02203655,47.37640762,8.55014038,489.69161987,5, 1
1312467294.07109237,47.37640762,8.55014038,489.67889404,5, 1
1312467294.12317944,47.37640762,8.55014038,489.66616821,5, 1
1312467294.17230153,47.37640762,8.55014038,489.65338135,5, 1
1312467294.22324967,47.37640762,8.55014038,489.64053345,5, 1
1312467294.27119374,47.37640762,8.55014133,489.62112427,5, 1
1312467294.32323885,47.37640762,8.55014133,489.60815430,5, 1
1312467294.37221646,47.37640762,8.55014133,489.59512329,5, 1
1312467294.42311478,47.37640762,8.55014133,489.58206177,5, 1
1312467294.47108459,47.37640762,8.55014133,489.56896973,5, 1
1312467294.52190900,47.37640762,8.55014133,489.55291748,5, 1
1312467294.57267785,47.37640762,8.55014133,489.53973389,5, 1
1312467294.62330270,47.37640762,8.55014133,489.52648926,5, 1
1312467294.67222261,47.37641144,8.55014133,489.51321411,5, 1
1312467294.72357273,47.37641144,8.55014133,489.49993896,5, 1
1312467294.77119064,47.37641144,8.55014133,489.47863770,5, 1
1312467294.82307696,47.37641144,8.55014133,489.46520996,5, 1
1312467294.87256765,47.37641144,8.55014133,489.45175171,5, 1
1312467294.92310524,47.37641144,8.55014133,489.43823242,5, 1
1312467294.97185326,47.37641144,8.55014133,489.42468262,5, 1
1312467295.02341104,47.37641144,8.55014324,489.39855957,5, 1
1312467295.07204914,47.37641144,8.55014324,489.38485718,5, 1
1312467295.12307811,47.37641144,8.55014324,489.37112427,5, 1
1312467295.17118144,47.37641144,8.55014229,489.35736084,5, 1
1312467295.22412419,47.37641144,8.55014229,489.34353638,5, 1
1312467295.27232718,47.37641144,8.55014324,489.31027222,5, 1
1312467295.32312083,47.37641144,8.55014324,489.29629517,5, 1
1312467295.37119579,47.37641525,8.55014324,489.28225708,5, 1
1312467295.42308211,47.37641525,8.55014324,489.26815796,5, 1
1312467295.47119141,47.37641525,8.55014324,489.25402832,5, 1
1312467295.52335763,47.37641525,8.55014420,489.21664429,5, 1
1312467295.57120395,47.37641525,8.55014420,489.20233154,5, 1
1312467295.62309480,47.37641525,8.55014420,489.18795776,5, 1
1312467295.67110777,47.37641525,8.55014420,489.17355347,5, 1
1312467295.72308517,47.37641525,8.55014324,489.15911865,5, 1
1312467295.77121949,47.37641525,8.55014515,489.11605835,5, 1
1312467295.82311702,47.37641525,8.55014515,489.10140991,5, 1
1312467295.87121916,47.37641525,8.55014420,489.08670044,5, 1
1312467295.92021132,47.37641525,8.55014420,489.07199097,5, 1
1312467295.97121334,47.37641525,8.55014420,489.05725098,5, 1
1312467296.02019644,47.37641525,8.55014610,489.01013184,5, 1
1312467296.07213354,47.37641525,8.55014610,488.99514771,5, 1
1312467296.12311912,47.37641907,8.55014515,488.98013306,5, 1
1312467296.17107987,47.37641907,8.55014515,488.96505737,5, 1
1312467296.22308731,47.37641907,8.55014515,488.94995117,5, 1
1312467296.27210522,47.37641907,8.55014706,488.89739990,5, 1
1312467296.32011271,47.37641907,8.55014706,488.88201904,5, 1
1312467296.37211680,47.37641907,8.55014706,488.86663818,5, 1
1312467296.42310023,47.37641907,8.55014610,488.85119629,5, 1
1312467296.47279406,47.37641907,8.55014610,488.83569336,5, 1
1312467296.52011514,47.37641907,8.55014896,488.78836060,5, 1
1312467296.57220364,47.37641907,8.55014896,488.77264404,5, 1
1312467296.62020731,47.37641907,8.55014896,488.75692749,5, 1
1312467296.67220998,47.37641907,8.55014801,488.74114990,5, 1
1312467296.72009492,47.37641907,8.55014801,488.72534180,5, 1
1312467296.77111745,47.37641907,8.55014992,488.67135620,5, 1
1312467296.82085919,47.37641907,8.55014992,488.65527344,5, 1
1312467296.87288570,47.37641907,8.55014992,488.63912964,5, 1
1312467296.92370081,47.37642288,8.55014992,488.62295532,5, 1
1312467296.97221375,47.37642288,8.55014992,488.60675049,5, 1
1312467297.02409935,47.37642288,8.55015087,488.55181885,5, 1
1312467297.07183528,47.37642288,8.55015087,488.53533936,5, 1
1312467297.12309837,47.37642288,8.55015087,488.51882935,5, 1
1312467297.17221498,47.37642288,8.55015087,488.50225830,5, 1
1312467297.22406745,47.37642288,8.55015087,488.48562622,5, 1
1312467297.27272224,47.37642288,8.55015278,488.43405151,5, 1
1312467297.32343507,47.37642288,8.55015278,488.41717529,5, 1
1312467297.37209487,47.37642288,8.55015182,488.40029907,5, 1
1312467297.42334652,47.37642288,8.55015182,488.38336182,5, 1
1312467297.47221661,47.37642288,8.55015182,488.36639404,5, 1
1312467297.52309895,47.37642288,8.55015373,488.32171631,5, 1
1312467297.56410170,47.37642288,8.55015373,488.30456543,5, 1
1312467297.62310243,47.37642288,8.55015373,488.29080200,5, 1
1312467297.67115426,47.37642288,8.55015373,488.27011108,5, 1
1312467297.72307444,47.37642288,8.55015373,488.25283813,5, 1
1312467297.77207494,47.37642670,8.55015469,488.21020508,5, 1
1312467297.82412505,47.37642670,8.55015469,488.19268799,5, 1
1312467297.87214804,47.37642670,8.55015469,488.17514038,5, 1
1312467297.92309141,47.37642670,8.55015469,488.15753174,5, 1
1312467297.97154117,47.37642670,8.55015469,488.13986206,5, 1
1312467298.02310109,47.37642670,8.55015469,488.10449219,5, 1
1312467298.07227659,47.37642670,8.55015469,488.08670044,5, 1
1312467298.12312055,47.37642670,8.55015469,488.06884766,5, 1
1312467298.17123055,47.37642670,8.55015469,488.05096436,5, 1
1312467298.22323442,47.37642670,8.55015469,488.03305054,5, 1
1312467298.27212453,47.37642670,8.55015469,487.99450684,5, 1
1312467298.32309484,47.37642670,8.55015469,487.97637939,5, 1
1312467298.37224698,47.37642670,8.55015469,487.95822144,5, 1
1312467298.42309904,47.37642670,8.55015469,487.94003296,5, 1
1312467298.47234321,47.37642670,8.55015469,487.92178345,5, 1
1312467298.52326202,47.37642670,8.55015564,487.88528442,5, 1
1312467298.57128882,47.37642670,8.55015564,487.86685181,5, 1
1312467298.62365556,47.37642670,8.55015564,487.84838867,5, 1
1312467298.67118979,47.37643051,8.55015469,487.82989502,5, 1
1312467298.72315621,47.37643051,8.55015469,487.81130981,5, 1
1312467298.77162671,47.37643051,8.55015564,487.77545166,5, 1
1312467298.82021236,47.37643051,8.55015564,487.75671387,5, 1
1312467298.87109661,47.37643051,8.55015564,487.73797607,5, 1
1312467298.92021751,47.37643051,8.55015564,487.71917725,5, 1
1312467298.97180581,47.37643051,8.55015564,487.70034790,5, 1
1312467299.02308440,47.37643051,8.55015564,487.66528320,5, 1
1312467299.07109356,47.37643051,8.55015564,487.64630127,5, 1
1312467299.12014532,47.37643051,8.55015564,487.62725830,5, 1
1312467299.17177749,47.37643051,8.55015564,487.60815430,5, 1
1312467299.22372389,47.37643051,8.55015564,487.58905029,5, 1
1312467299.27211165,47.37643051,8.55015659,487.56137085,5, 1
1312467299.32010913,47.37643051,8.55015659,487.54214478,5, 1
1312467299.37223291,47.37643051,8.55015564,487.52282715,5, 1
1312467299.42013907,47.37643051,8.55015564,487.50350952,5, 1
1312467299.47144151,47.37643051,8.55015564,487.48413086,5, 1
1312467299.52420282,47.37643051,8.55015659,487.45477295,5, 1
1312467299.57234573,47.37643051,8.55015659,487.43527222,5, 1
1312467299.62021375,47.37643051,8.55015659,487.41574097,5, 1
1312467299.67108011,47.37643051,8.55015659,487.39617920,5, 1
1312467299.72021151,47.37643051,8.55015659,487.37658691,5, 1
1312467299.77109981,47.37643051,8.55015755,487.35287476,5, 1
1312467299.82330585,47.37643433,8.55015659,487.33316040,5, 1
1312467299.87275457,47.37643433,8.55015659,487.31344604,5, 1
1312467299.92420888,47.37643433,8.55015659,487.29367065,5, 1
1312467299.97219634,47.37643433,8.55015659,487.27386475,5, 1
1312467300.02353835,47.37643433,8.55015755,487.25054932,5, 1
1312467300.07126260,47.37643433,8.55015755,487.23065186,5, 1
1312467300.12420774,47.37643433,8.55015659,487.21069336,5, 1
1312467300.17209983,47.37643433,8.55015659,487.19070435,5, 1
1312467300.22420454,47.37643433,8.55015659,487.17068481,5, 1
1312467300.27207804,47.37643433,8.55015755,487.15014648,5, 1
1312467300.32355952,47.37643433,8.55015659,487.13003540,5, 1
1312467300.37212968,47.37643433,8.55015659,487.10989380,5, 1
1312467300.42320633,47.37643433,8.55015659,487.08969116,5, 1
1312467300.47113729,47.37643433,8.55015659,487.06945801,5, 1
1312467300.52353597,47.37643433,8.55015755,487.05389404,5, 1
1312467300.57216287,47.37643433,8.55015755,487.03363037,5, 1
1312467300.62320232,47.37643433,8.55015755,487.01330566,5, 1
1312467300.67221498,47.37643433,8.55015755,486.99295044,5, 1
1312467300.72320533,47.37643433,8.55015755,486.97253418,5, 1
1312467300.77119446,47.37643433,8.55015850,486.96322632,5, 1
1312467300.82329702,47.37643433,8.55015850,486.94281006,5, 1
1312467300.87908387,47.37643433,8.55015755,486.92233276,5, 1
1312467300.92305398,47.37643433,8.55015755,486.90182495,5, 1
